Date String (YYYY-MM-DD hh:mm:ss) UTC,Instrument flags,absolute air pressure of the measurement (hPa),sample flow rate (lpm),inlet stack bypass flow (lpm),air temperature of the measurement (°C),ambient temperature measured by the external sensor (°C),aerosol sample conditioner tube jacket temperature (°C),OPC LED temperature (°C),internal box temperature (°C),relative humidity of the measurement (%),span deviation,mass concentration of particles derived from Lorenz-Mie calculation of OPC scattering (μg/m³),mass concentration of particles derived from Lorenz-Mie calculation of OPC scattering (μg/m³),mass concentration of particles derived from Lorenz-Mie calculation of OPC scattering (μg/m³)
DateTimeUTC,F1_M11,P_M11,Q1_M11,Q2_M11,T1_M11,T2_M11,T3_M11,T4_M11,T5_M11,U1_M11,ZSPAN_M11,X0_M11,X2_M11,X1_M11
2024-05-17 10:00:00,SystemResetWarning,0823.2,4.98,000.00,025.2,024.5,000.0,033.3,027.0,016.1,0000.0,0006.55,0002.51,0001.77
2024-05-17 10:01:00,SystemResetWarning,0823.3,5.00,000.00,025.2,024.6,000.0,033.3,027.0,016.1,0000.0,0006.70,0002.57,0001.77
2024-05-17 10:02:00,SystemResetWarning,0823.2,5.01,000.00,025.2,024.6,000.0,033.3,027.1,016.0,0000.0,0006.16,0002.62,0001.78
2024-05-17 10:03:00,SystemResetWarning,0823.1,5.00,000.00,025.3,024.7,000.0,033.3,027.1,016.0,0000.0,0006.00,0002.58,0001.79
2024-05-17 10:04:00,SystemResetWarning,0823.1,5.00,000.00,025.3,024.7,000.0,033.3,027.1,015.9,0000.0,0005.95,0002.57,0001.79
2024-05-17 10:05:00,SystemResetWarning,0823.0,5.00,000.00,025.3,024.7,000.0,033.4,027.1,015.9,0000.0,0005.72,0002.52,0001.79
2024-05-17 10:06:00,SystemResetWarning,0823.0,5.00,000.00,025.4,024.8,000.0,033.4,027.2,015.9,0000.0,0005.50,0002.51,0001.78
2024-05-17 10:07:00,SystemResetWarning,0823.0,4.99,000.00,025.4,024.8,000.0,033.4,027.2,015.6,0000.0,0005.37,0002.50,0001.77
2024-05-17 10:08:00,SystemResetWarning,0822.8,5.00,000.00,025.4,024.8,000.0,033.4,027.2,015.6,0000.0,0004.94,0002.46,0001.76
2024-05-17 10:09:00,SystemResetWarning,0822.9,5.01,000.00,025.5,024.8,000.0,033.4,027.3,015.6,0000.0,0004.04,0002.46,0001.76
2024-05-17 10:10:00,SystemResetWarning,0823.0,5.01,000.00,025.5,024.8,000.0,033.5,027.3,015.5,0000.0,0004.22,0002.48,0001.77
2024-05-17 10:11:00,SystemResetWarning,0823.1,5.01,000.00,025.5,024.9,000.0,033.5,027.3,015.6,0000.0,0004.40,0002.51,0001.76
2024-05-17 10:12:00,SystemResetWarning,0822.8,5.00,000.00,025.5,024.9,000.0,033.5,027.3,015.7,0000.0,0004.41,0002.51,0001.77
2024-05-17 10:13:00,SystemResetWarning,0822.8,4.99,000.00,025.5,024.9,000.0,033.5,027.3,015.4,0000.0,0004.40,0002.46,0001.77
2024-05-17 10:14:00,SystemResetWarning,0823.1,4.99,000.00,025.6,024.9,000.0,033.6,027.3,015.2,0000.0,0004.51,0002.45,0001.77
2024-05-17 10:15:00,SystemResetWarning,0823.1,5.00,000.00,025.6,024.9,000.0,033.6,027.4,015.0,0000.0,0004.80,0002.46,0001.76
2024-05-17 10:16:00,SystemResetWarning,0822.9,5.01,000.00,025.6,025.0,000.0,033.6,027.4,015.0,0000.0,0004.68,0002.42,0001.76
2024-05-17 10:17:00,SystemResetWarning,0823.0,5.01,000.00,025.6,025.0,000.0,033.6,027.4,015.2,0000.0,0005.78,0002.44,0001.76
2024-05-17 10:18:00,SystemResetWarning,0823.0,5.00,000.00,025.6,025.0,000.0,033.6,027.4,015.2,0000.0,0005.78,0002.44,0001.77
2024-05-17 10:19:00,SystemResetWarning,0822.9,5.00,000.00,025.6,025.0,000.0,033.7,027.4,015.0,0000.0,0005.92,0002.47,0001.80
2024-05-17 10:20:00,SystemResetWarning,0823.0,5.00,000.00,025.7,025.0,000.0,033.7,027.4,014.9,0000.0,0005.94,0002.49,0001.81
2024-05-17 10:21:00,SystemResetWarning,0822.9,5.00,000.00,025.7,025.0,000.0,033.7,027.4,014.9,0000.0,0005.72,0002.47,0001.81
2024-05-17 10:22:00,SystemResetWarning,0823.0,5.00,000.00,025.7,025.0,000.0,033.7,027.5,015.0,0000.0,0005.45,0002.42,0001.81
2024-05-17 10:23:00,SystemResetWarning,0823.2,4.99,000.00,025.7,025.0,000.0,033.7,027.4,015.0,0000.0,0005.70,0002.42,0001.81
2024-05-17 10:24:00,SystemResetWarning,0823.0,5.00,000.00,025.7,025.1,000.0,033.7,027.5,015.0,0000.0,0006.05,0002.47,0001.82
2024-05-17 10:25:00,SystemResetWarning,0822.9,5.00,000.00,025.7,025.1,000.0,033.8,027.5,015.0,0000.0,0006.05,0002.51,0001.82
2024-05-17 10:26:00,SystemResetWarning,0823.1,5.01,000.00,025.7,025.1,000.0,033.8,027.5,015.0,0000.0,0005.75,0002.49,0001.82
2024-05-17 10:27:00,SystemResetWarning,0823.0,5.00,000.00,025.8,025.1,000.0,033.8,027.5,014.9,0000.0,0005.76,0002.48,0001.82
2024-05-17 10:28:00,SystemResetWarning,0823.0,5.00,000.00,025.8,025.1,000.0,033.8,027.5,014.9,0000.0,0004.67,0002.47,0001.82
2024-05-17 10:29:00,SystemResetWarning,0822.9,5.00,000.00,025.8,025.1,000.0,033.8,027.5,014.9,0000.0,0004.80,0002.48,0001.82
2024-05-17 10:30:00,SystemResetWarning,0823.0,4.99,000.00,025.8,025.1,000.0,033.9,027.6,014.9,0000.0,0004.90,0002.52,0001.82
2024-05-17 10:31:00,SystemResetWarning,0823.0,5.00,000.00,025.8,025.2,000.0,033.9,027.6,014.9,0000.0,0005.17,0002.53,0001.82
2024-05-17 10:32:00,SystemResetWarning,0823.0,5.00,000.00,025.8,025.2,000.0,033.9,027.6,014.9,0000.0,0005.78,0002.57,0001.82
2024-05-17 10:33:00,SystemResetWarning,0823.0,5.00,000.00,025.9,025.2,000.0,033.9,027.6,015.0,0000.0,0005.90,0002.58,0001.83
2024-05-17 10:34:00,SystemResetWarning,0822.9,5.00,000.00,025.9,025.2,000.0,033.9,027.6,015.0,0000.0,0005.52,0002.56,0001.83
2024-05-17 10:35:00,SystemResetWarning,0823.0,4.99,000.00,025.9,025.2,000.0,033.9,027.6,015.1,0000.0,0005.09,0002.53,0001.84
2024-05-17 10:36:00,SystemResetWarning,0822.9,5.00,000.00,025.9,024.8,000.0,034.0,027.4,015.2,0000.0,0004.95,0002.48,0001.84
2024-05-17 10:37:00,SystemResetWarning,0822.8,5.00,000.00,025.5,022.6,000.0,034.0,026.3,015.4,0000.0,0004.99,0002.49,0001.85
2024-05-17 10:38:00,SystemResetWarning,0822.9,5.00,000.00,025.1,021.9,000.0,034.0,025.9,015.6,0000.0,0005.09,0002.54,0001.86
2024-05-17 10:39:00,SystemResetWarning,0822.9,5.01,000.00,025.0,022.2,000.0,033.8,025.8,015.9,0000.0,0005.17,0002.53,0001.88
2024-05-17 10:40:00,SystemResetWarning,0823.0,5.00,000.00,024.9,022.6,000.0,033.7,026.1,015.8,0000.0,0005.41,0002.54,0001.90
2024-05-17 10:41:00,SystemResetWarning,0822.9,5.00,000.00,024.9,022.9,000.0,033.6,026.3,015.7,0000.0,0005.36,0002.55,0001.90
2024-05-17 10:42:00,SystemResetWarning,0823.0,5.00,000.00,024.9,023.2,000.0,033.5,026.4,015.6,0000.0,0005.56,0002.57,0001.91
2024-05-17 10:43:00,SystemResetWarning,0822.9,5.00,000.00,025.0,023.5,000.0,033.5,026.6,015.6,0000.0,0006.13,0002.60,0001.92
2024-05-17 10:44:00,SystemResetWarning,0823.0,5.00,000.00,025.0,023.7,000.0,033.4,026.6,015.5,0000.0,0006.44,0002.62,0001.92
2024-05-17 10:45:00,SystemResetWarning,0823.0,5.00,000.00,025.0,023.8,000.0,033.4,026.7,015.4,0000.0,0007.54,0002.62,0001.92
2024-05-17 10:46:00,SystemResetWarning,0823.2,4.99,000.00,025.0,024.0,000.0,033.4,026.8,015.5,0000.0,0007.61,0002.64,0001.92
2024-05-17 10:47:00,SystemResetWarning,0823.2,5.00,000.00,025.1,024.1,000.0,033.4,026.8,015.5,0000.0,0007.69,0002.69,0001.94
2024-05-17 10:48:00,SystemResetWarning,0823.2,5.00,000.00,025.1,024.2,000.0,033.4,026.9,015.5,0000.0,0007.71,0002.73,0001.96
2024-05-17 10:49:00,SystemResetWarning,0822.8,5.00,000.00,025.1,024.3,000.0,033.4,026.9,015.4,0000.0,0007.80,0002.75,0001.96
2024-05-17 10:50:00,SystemResetWarning,0822.9,5.01,000.00,025.2,024.4,000.0,033.4,026.9,015.3,0000.0,0007.85,0002.80,0001.97
2024-05-17 10:51:00,SystemResetWarning,0822.8,5.00,000.00,025.2,024.4,000.0,033.4,027.0,015.3,0000.0,0007.57,0002.78,0001.97
2024-05-17 10:52:00,SystemResetWarning,0823.0,5.01,000.00,025.2,024.5,000.0,033.4,027.0,015.4,0000.0,0007.47,0002.74,0001.99
2024-05-17 10:53:00,SystemResetWarning,0822.8,5.01,000.00,025.3,024.5,000.0,033.4,027.0,015.4,0000.0,0007.26,0002.74,0002.00
2024-05-17 10:54:00,SystemResetWarning,0822.8,4.98,000.00,025.3,024.6,000.0,033.4,027.1,015.4,0000.0,0006.20,0002.71,0002.01
2024-05-17 10:55:00,SystemResetWarning,0823.0,5.00,000.00,025.3,024.6,000.0,033.4,027.1,015.4,0000.0,0005.98,0002.71,0002.01
2024-05-17 10:56:00,SystemResetWarning,0822.9,5.01,000.00,025.3,024.7,000.0,033.4,027.1,015.5,0000.0,0004.31,0002.70,0002.02
2024-05-17 10:57:00,SystemResetWarning,0822.9,5.00,000.00,025.4,024.7,000.0,033.4,027.1,015.4,0000.0,0004.19,0002.67,0002.02
2024-05-17 10:58:00,SystemResetWarning,0822.9,5.01,000.00,025.4,024.7,000.0,033.4,027.2,015.3,0000.0,0004.85,0002.71,0002.02
2024-05-17 10:59:00,SystemResetWarning,0823.0,5.00,000.00,025.4,024.7,000.0,033.5,027.2,015.3,0000.0,0005.08,0002.71,0002.02
